Elephant Butte, NM

7:44 AM MST on December 08, 2016 (GMT -0700)
Truth Or Consequences Municipal

Weather History for KTCS - September, 2013

Change the Weather History Date:

Friday, September 20, 2013

  Actual Average Record
Temperature  
Mean Temperature 73 °F -  
Max Temperature 83 °F 83 °F 93 °F (2005)
Min Temperature 62 °F 57 °F 52 °F (2002)
Degree Days  
Heating Degree Days 0    
Month to date heating degree days 2  
Since 1 July heating degree days 2  
Cooling Degree Days 8    
Month to date cooling degree days 177  
Year to date cooling degree days 1795  
Growing Degree Days 22 (Base 50)    
Moisture  
Dew Point 54 °F    
Average Humidity 63    
Maximum Humidity 90    
Minimum Humidity 36    
Precipitation  
Precipitation 0.00 in - 0.67 in (1997)
Month to date precipitation 6.16  
Year to date precipitation 11.09  
Sea Level Pressure  
Sea Level Pressure 29.88 in    
Wind  
Wind Speed 5 mph (NNW)    
Max Wind Speed 21 mph    
Max Gust Speed 26 mph    
Visibility 10 miles    
Events Thunderstorm    
T = Trace of Precipitation, MM = Missing Value Source: NWS Daily Summary

Daily Weather History Graph

Daily Weather History Graph

Search for Another Location

Airport or City:

Trip Planner

Search our weather history database for the weather conditions in past years. The results will help you decide how hot, cold, wet, or windy it might be!

Date:

Astronomy

Sep. 20, 2013 Rise Set
Actual Time 6:56 AM MDT 7:08 PM MDT
Civil Twilight 6:31 AM MDT 7:32 PM MDT
Nautical Twilight 6:02 AM MDT 8:01 PM MDT
Astronomical Twilight 5:33 AM MDT 8:30 PM MDT
Moon 7:51 PM MDT (9/20) 8:07 AM MDT (9/20)
Length of Visible Light 13h 01m
Length of Day
12h 12m
Full, 98% of the Moon is Illuminated
Sep 20
Full
Sep 26
Last Quarter
Oct 4
New
Oct 11
First Quarter
Oct 18
Full

Hourly Weather History & Observations

Time (MDT) Temp. Heat Index Dew Point Humidity Pressure Visibility Wind Dir Wind Speed Gust Speed Precip Events Conditions
12:53 AM 64.9 °F - 59.0 °F 81% 29.81 in 10.0 mi SSW 3.5 mph - N/A   Clear
1:53 AM 64.0 °F - 59.0 °F 84% 29.82 in 10.0 mi Calm Calm - N/A   Clear
2:53 AM 64.0 °F - 57.9 °F 80% 29.82 in 10.0 mi Calm Calm - N/A   Clear
3:53 AM 63.0 °F - 59.0 °F 87% 29.81 in 10.0 mi WNW 3.5 mph - N/A   Overcast
4:53 AM 62.1 °F - 57.9 °F 86% 29.83 in 10.0 mi Calm Calm - N/A   Scattered Clouds
5:53 AM 63.0 °F - 57.9 °F 84% 29.87 in 10.0 mi NE 11.5 mph - N/A   Clear
6:53 AM 62.1 °F - 59.0 °F 90% 29.89 in 10.0 mi NNE 5.8 mph - N/A   Clear
7:53 AM 63.0 °F - 55.9 °F 78% 29.92 in 10.0 mi North 10.4 mph 18.4 mph N/A   Clear
8:53 AM 66.0 °F - 55.9 °F 70% 29.92 in 10.0 mi North 9.2 mph - N/A   Overcast
9:53 AM 71.1 °F - 57.0 °F 61% 29.92 in 10.0 mi North 9.2 mph - N/A   Clear
10:53 AM 73.9 °F - 57.0 °F 55% 29.91 in 10.0 mi NNE 8.1 mph - N/A   Clear
11:53 AM 77.0 °F - 55.0 °F 47% 29.89 in 10.0 mi Calm Calm - N/A   Clear
12:53 PM 78.1 °F - 54.0 °F 43% 29.88 in 10.0 mi Calm Calm - N/A   Clear
1:53 PM 79.0 °F - 53.1 °F 40% 29.86 in 10.0 mi Calm Calm - N/A   Clear
2:53 PM 82.0 °F 81.2 °F 53.1 °F 37% 29.83 in 10.0 mi East 5.8 mph - N/A   Partly Cloudy
3:53 PM 81.0 °F - 51.1 °F 35% 29.83 in 10.0 mi ENE 6.9 mph - N/A   Clear
4:53 PM 80.1 °F - 51.1 °F 36% 29.83 in 10.0 mi Calm Calm - N/A   Partly Cloudy
5:53 PM 79.0 °F - 51.1 °F 38% 29.84 in 10.0 mi North 5.8 mph - N/A   Clear
6:05 PM 78.8 °F - 51.8 °F 39% 30.06 in 10.0 mi NNE 3.5 mph - N/A Thunderstorm Partly Cloudy
6:20 PM 78.8 °F - 51.8 °F 39% 30.07 in 10.0 mi Calm Calm - N/A   Clear
6:53 PM 73.9 °F - 46.9 °F 38% 29.87 in 10.0 mi WNW 13.8 mph 24.2 mph N/A   Scattered Clouds
7:53 PM 72.0 °F - 46.0 °F 40% 29.88 in 10.0 mi WNW 5.8 mph - N/A   Clear
8:53 PM 70.0 °F - 51.1 °F 51% 29.92 in 10.0 mi West 5.8 mph - N/A   Scattered Clouds
9:53 PM 70.0 °F - 52.0 °F 53% 29.91 in 10.0 mi WSW 6.9 mph - N/A   Scattered Clouds
10:53 PM 66.9 °F - 52.0 °F 59% 29.91 in 10.0 mi WSW 4.6 mph - N/A   Clear
11:53 PM 64.0 °F - 55.0 °F 73% 29.92 in 10.0 mi WSW 4.6 mph - N/A   Clear